Total_Precipitation_Accumulation
0.06 0.12 0.29 0.56 1.19 1.45 1.21 0.75 0.55 0.54 0.60 0.60 0.52 0.51 0.59 0.69 0.97 1.60 1.23 0.75 0.46 0.42 0.52 0.71 1.01 0.97 0.89 0.90 0.95 0.99 0.94 0.88 0.86 0.84 0.82 0.92 0.95 0.89 0.90 0.96 0.99 1.03 1.03 1.09 1.15 1.05 1.02 1.02 1.02
0.10 0.20 0.39 0.94 1.43 1.30 1.15 0.65 0.37 0.46 0.55 0.69 0.69 0.57 0.50 0.53 0.52 0.60 0.71 0.78 0.40 0.33 0.42 0.54 0.79 0.85 0.81 0.81 0.86 0.88 0.83 0.77 0.79 0.77 0.82 0.92 0.97 0.98 1.02 1.08 1.08 1.08 1.13 1.17 1.14 1.06 1.02 1.01 1.10
0.14 0.26 0.47 0.94 0.97 0.85 0.86 0.52 0.38 0.33 0.51 0.75 0.74 0.51 0.54 0.62 0.52 0.50 0.55 0.58 0.40 0.35 0.33 0.45 0.69 0.73 0.75 0.74 0.77 0.80 0.79 0.75 0.76 0.78 0.84 0.92 1.00 1.09 1.15 1.20 1.23 1.23 1.27 1.21 1.15 1.07 1.00 0.99 1.02
0.16 0.32 0.55 0.62 0.42 0.32 0.40 0.45 0.47 0.46 0.64 0.77 0.64 0.55 0.57 0.61 0.55 0.46 0.43 0.50 0.36 0.37 0.35 0.43 0.65 0.67 0.64 0.66 0.67 0.70 0.75 0.76 0.74 0.79 0.86 1.00 1.04 1.06 1.13 1.18 1.24 1.30 1.24 1.13 1.10 1.13 1.02 0.99 1.04
0.15 0.32 0.60 0.47 0.27 0.21 0.22 0.28 0.36 0.53 0.71 0.83 0.70 0.67 0.76 0.63 0.49 0.42 0.37 0.50 0.49 0.45 0.43 0.46 0.67 0.71 0.66 0.65 0.66 0.66 0.69 0.72 0.69 0.72 0.80 0.99 0.99 0.96 1.05 1.12 1.17 1.13 1.11 1.10 1.16 1.20 1.13 1.11 1.09
0.15 0.28 0.45 0.32 0.19 0.16 0.20 0.25 0.39 0.58 0.61 0.69 0.79 0.86 0.90 0.70 0.58 0.49 0.47 0.59 0.63 0.54 0.45 0.54 0.70 0.77 0.75 0.71 0.69 0.69 0.68 0.67 0.67 0.70 0.80 0.92 0.97 1.00 1.07 1.12 1.05 0.96 0.92 1.01 1.14 1.20 1.20 1.12 1.05
0.18 0.22 0.24 0.19 0.13 0.15 0.22 0.32 0.36 0.49 0.57 0.77 0.82 0.85 0.95 0.90 0.75 0.61 0.73 0.96 0.93 0.79 0.62 0.65 0.71 0.70 0.75 0.79 0.77 0.74 0.74 0.74 0.70 0.71 0.82 0.88 0.95 0.96 1.04 1.15 1.06 0.94 0.92 1.01 1.16 1.14 1.20 1.04 0.97
0.11 0.17 0.19 0.16 0.09 0.13 0.19 0.26 0.37 0.50 0.62 0.69 0.79 0.91 0.94 0.85 0.77 0.81 1.02 1.39 1.53 1.39 1.08 0.78 0.74 0.81 0.76 0.73 0.81 0.84 0.75 0.73 0.75 0.80 0.92 1.00 1.04 1.07 1.12 1.15 1.22 1.10 1.08 1.16 1.26 1.15 1.07 1.04 1.04
0.05 0.13 0.17 0.13 0.11 0.13 0.20 0.26 0.32 0.38 0.48 0.70 0.88 1.02 0.93 0.73 0.77 0.99 1.21 1.54 1.74 1.57 1.40 1.19 1.06 0.96 0.94 0.86 0.75 0.96 0.90 0.87 1.00 1.19 1.21 1.41 1.56 1.40 1.42 1.32 1.45 1.40 1.40 1.57 1.65 1.46 1.33 1.26 1.24
0.03 0.08 0.09 0.06 0.06 0.06 0.12 0.22 0.29 0.43 0.74 1.17 1.40 1.26 1.01 0.86 0.98 1.23 1.40 1.43 1.52 1.56 1.53 1.56 1.36 1.24 1.25 1.13 1.26 1.58 1.46 1.46 1.71 1.81 1.74 2.10 2.27 2.01 1.52 1.59 1.89 1.90 2.01 2.19 2.25 2.25 1.91 1.63 1.41
0.01 0.04 0.04 0.03 0.03 0.03 0.07 0.15 0.27 0.46 0.96 1.45 1.65 1.35 1.14 1.09 1.19 1.34 1.65 1.75 1.85 1.84 1.69 1.76 1.68 1.57 1.63 1.76 1.75 1.94 2.10 2.22 2.36 2.32 2.35 2.57 2.35 1.98 1.77 1.97 2.32 2.37 2.43 2.50 2.61 2.65 2.17 2.11 2.14
0.01 0.01 0.01 0.01 0.02 0.02 0.06 0.15 0.35 0.60 1.00 1.28 1.21 1.07 1.06 1.26 1.45 1.63 1.89 2.19 2.30 2.35 2.24 2.02 1.97 2.16 2.19 2.10 2.04 1.93 1.80 1.84 2.07 2.19 2.12 2.49 2.74 2.64 2.61 2.70 2.55 2.70 2.95 3.21 2.99 2.92 2.65 2.60 2.40
0.00 0.01 0.01 0.01 0.02 0.04 0.08 0.17 0.37 0.69 0.90 0.96 0.84 0.88 1.14 1.42 1.68 2.12 2.53 2.61 2.59 2.81 2.95 2.74 2.67 2.65 2.48 2.50 2.18 1.86 1.80 1.69 1.63 1.88 2.05 2.28 2.65 2.80 2.89 2.66 2.58 2.47 2.62 2.78 2.76 2.52 2.60 2.70 2.62
0.00 0.01 0.01 0.02 0.03 0.06 0.15 0.24 0.37 0.61 0.70 0.70 0.77 1.01 1.22 1.62 1.91 2.43 2.92 2.98 3.08 3.34 3.52 3.40 3.38 3.19 2.89 2.63 2.47 2.31 2.03 1.96 1.67 1.77 1.80 2.15 2.55 2.63 2.53 2.58 2.67 2.51 2.53 2.52 2.51 2.53 2.73 2.84 2.87
0.00 0.02 0.08 0.08 0.07 0.08 0.17 0.39 0.48 0.66 0.74 0.70 0.87 1.04 1.42 1.87 2.13 2.45 2.70 3.09 3.51 3.88 3.95 3.88 3.89 3.79 3.73 3.39 2.97 2.57 2.41 2.14 2.05 2.00 1.84 2.07 2.38 2.56 2.57 2.54 2.42 2.39 2.42 2.53 2.56 2.59 2.71 2.60 2.64
0.02 0.07 0.20 0.19 0.12 0.12 0.17 0.56 0.80 0.75 0.72 0.76 0.93 1.28 1.54 1.84 2.24 2.46 2.78 3.13 3.54 4.04 4.42 4.49 4.00 3.95 3.98 3.87 3.57 3.12 3.00 2.82 2.64 2.29 2.06 2.01 2.21 2.31 2.45 2.27 2.24 2.29 2.13 2.16 2.32 2.28 2.35 2.43 2.55
0.06 0.12 0.20 0.28 0.18 0.15 0.26 0.77 1.11 0.83 0.67 0.81 1.08 1.40 1.76 1.99 2.40 2.52 2.70 2.98 3.43 4.31 5.20 5.20 4.68 4.27 3.96 3.89 3.90 3.77 3.57 3.18 2.75 2.46 2.30 2.15 2.00 1.86 1.97 1.93 2.02 1.98 1.92 1.96 1.76 2.09 2.22 2.33 2.39
0.07 0.12 0.24 0.37 0.23 0.22 0.33 0.72 0.78 0.69 0.87 0.88 0.92 1.16 1.49 1.62 1.91 2.18 2.47 3.00 3.80 4.98 5.77 5.67 5.04 4.59 4.24 4.04 3.86 3.80 3.48 3.17 2.72 2.52 2.36 2.10 2.05 1.77 1.75 1.73 1.80 1.71 1.78 1.92 1.97 2.16 2.14 2.06 2.06
0.06 0.11 0.24 0.28 0.21 0.31 0.39 0.61 0.71 0.82 1.02 1.02 0.88 0.93 1.23 1.44 1.72 2.18 2.73 3.57 4.65 5.55 5.83 5.32 4.83 4.49 4.07 3.66 3.09 2.73 2.70 2.59 2.30 2.03 1.75 1.68 1.63 1.71 1.80 1.60 1.72 1.60 1.63 1.67 1.70 1.83 1.84 1.80 1.86
0.07 0.11 0.21 0.27 0.19 0.23 0.39 0.72 1.02 1.00 0.93 0.89 0.95 0.95 1.06 1.43 1.88 2.60 3.63 4.21 4.45 4.58 4.34 4.00 3.75 3.54 3.09 2.73 2.50 2.27 2.25 2.04 1.85 1.76 1.74 1.48 1.41 1.47 1.43 1.57 1.55 1.50 1.66 1.68 1.65 1.73 1.70 1.59 1.64
0.11 0.13 0.21 0.26 0.17 0.19 0.39 0.90 1.19 1.17 0.96 0.82 0.86 0.86 1.04 1.47 2.06 2.87 3.44 3.57 3.28 2.96 2.87 2.82 2.89 2.65 2.51 2.48 2.37 2.27 2.27 2.03 1.77 1.67 1.63 1.39 1.21 1.22 1.29 1.33 1.35 1.48 1.49 1.61 1.65 1.55 1.61 1.63 1.58
0.10 0.08 0.07 0.10 0.17 0.35 0.54 1.13 1.33 1.10 1.07 0.90 0.88 0.90 0.95 1.23 1.59 2.01 2.25 2.14 2.26 2.40 2.41 2.53 2.63 2.37 2.35 2.30 2.02 1.93 1.82 1.72 1.59 1.53 1.51 1.58 1.32 1.15 1.12 1.17 1.22 1.35 1.31 1.52 1.36 1.43 1.62 1.67 1.53
0.05 0.04 0.05 0.12 0.24 0.44 0.64 0.91 1.09 0.92 1.10 0.89 0.75 0.74 0.72 0.89 0.97 1.08 1.21 1.37 1.59 1.70 1.87 2.17 2.41 2.35 2.18 2.03 1.96 2.03 1.89 1.83 1.80 1.80 1.76 1.72 1.57 1.32 1.17 1.22 1.27 1.33 1.26 1.30 1.29 1.56 1.55 1.50 1.43
0.04 0.06 0.14 0.25 0.41 0.91 0.87 0.86 1.11 1.04 1.11 0.86 0.68 0.59 0.64 0.75 0.83 0.87 0.93 1.07 1.24 1.36 1.53 1.78 2.09 2.23 2.16 2.00 1.92 1.96 2.00 1.95 1.85 1.81 1.76 1.58 1.47 1.40 1.26 1.26 1.29 1.25 1.23 1.21 1.19 1.38 1.42 1.48 1.51
0.06 0.08 0.25 0.60 1.01 1.17 0.75 0.83 1.08 0.85 0.78 0.65 0.43 0.41 0.53 0.72 0.86 0.93 0.89 0.86 0.91 1.06 1.22 1.32 1.50 1.77 1.89 1.86 1.84 1.85 1.97 1.88 1.68 1.56 1.47 1.41 1.23 1.14 1.17 1.19 1.23 1.11 1.14 1.23 1.35 1.37 1.36 1.43 1.45
0.05 0.04 0.12 0.25 0.37 0.55 0.74 1.10 1.21 0.87 0.59 0.36 0.27 0.36 0.53 0.68 0.73 0.77 0.76 0.73 0.71 0.78 0.96 1.09 1.28 1.46 1.66 1.68 1.67 1.67 1.73 1.66 1.54 1.52 1.30 1.22 1.17 1.11 1.15 1.17 1.12 1.10 1.14 1.17 1.41 1.31 1.29 1.33 1.30
0.06 0.04 0.05 0.09 0.15 0.36 0.73 1.03 0.99 0.77 0.57 0.40 0.33 0.35 0.45 0.50 0.53 0.64 0.70 0.77 0.75 0.72 0.83 0.96 1.19 1.39 1.57 1.67 1.70 1.63 1.61 1.61 1.59 1.54 1.34 1.18 1.27 1.20 1.25 1.24 1.21 1.21 1.30 1.40 1.52 1.40 1.39 1.43 1.28
0.06 0.06 0.05 0.06 0.14 0.28 0.57 0.99 1.16 0.95 0.70 0.51 0.43 0.43 0.50 0.51 0.53 0.72 0.86 0.82 0.69 0.58 0.65 0.80 1.01 1.27 1.44 1.60 1.60 1.49 1.65 1.62 1.61 1.52 1.40 1.27 1.27 1.26 1.33 1.31 1.27 1.32 1.37 1.47 1.55 1.43 1.47 1.46 1.37
0.07 0.07 0.07 0.07 0.09 0.16 0.41 0.63 0.60 0.56 0.48 0.45 0.50 0.48 0.39 0.45 0.55 0.73 0.91 0.87 0.65 0.54 0.55 0.66 0.88 1.11 1.22 1.30 1.38 1.37 1.42 1.40 1.42 1.44 1.43 1.40 1.38 1.33 1.33 1.33 1.32 1.31 1.37 1.44 1.50 1.42 1.43 1.39 1.42
0.10 0.11 0.12 0.11 0.10 0.11 0.21 0.40 0.33 0.37 0.40 0.43 0.53 0.59 0.52 0.53 0.60 0.57 0.67 0.80 0.74 0.65 0.56 0.65 0.82 0.96 1.01 1.07 1.09 1.16 1.23 1.25 1.23 1.23 1.31 1.38 1.33 1.28 1.33 1.37 1.31 1.21 1.28 1.41 1.42 1.37 1.41 1.45 1.42